Regional Weather Roundup
Issued by NWS Wakefield, VA

Home | Current Version | Previous Version | Text Only | Print | Product List | Glossary Off
Versions: 1 2 3 4 5 6 7 8 9 10 11 12 13 14 15 16 17 18 19 20 21 22 23 24 25 26

000
ASUS41 KAKQ 102315
RWRAKQ

REGIONAL WEATHER ROUNDUP
NATIONAL WEATHER SERVICE WAKEFIELD VA
600 PM EST SUN DEC 10 2017

Note: "fair" indicates few or no clouds below 12,000 feet with no
significant weather and/or obstructions to visibility. * = Denotes
station may not report precipitation (e.g., rain,snow,etc.),
thunder or fog.

VAZ042-051-052>054-056-110000-
NORTHERN VIRGINIA

CITY           SKY/WX    TMP DP  RH WIND       PRES   REMARKS
WASH NATIONAL  CLOUDY    39  23  52 SW6       30.07R
DULLES         PTCLDY    31  26  82 S5        30.04R
FORT BELVOIR   CLOUDY    37  25  62 CALM      30.06R
QUANTICO       PTCLDY    41  24  51 SW6       30.08R
FREDERICKSBRG* CLEAR     36  27  72 S7        30.07R
STAFFORD*      PTCLDY    36  22  56 CALM      30.10R
WARRENTON      PTCLDY    36  19  51 CALM      30.04S
CULPEPER*      CLOUDY    36  22  57 CALM      30.06S
MANASSAS*      CLOUDY    35  25  66 CALM      30.06R
LEESBURG*      PTCLDY    37  23  56 CALM      30.04S
WINCHESTER     PTCLDY    30  19  64 CALM      30.01S
FRONT ROYAL*   CLEAR     34  19  55 S3        30.00S
LURAY*         CLEAR     34  23  64 SW6       30.01S
$$

VAZ048-049-060>072-079>083-110000-
CENTRAL AND SOUTH CENTRAL VIRGINIA

CITY           SKY/WX    TMP DP  RH WIND       PRES   REMARKS
RICHMOND       CLEAR     33  27  78 S8        30.10R
CHESTERFIELD*  NOT AVBL
PETERSBURG*    CLEAR     30  27  86 SW3       30.13R
HANOVER        CLEAR     35  25  66 S5        30.10R
TAPPAHANNOCK*    N/A    N/A N/A N/A MISG        N/A
QUINTON*       FAIR      34  28  77 SW5       30.10S
CHARLOTTSVILLE CLEAR     37  18  46 SW3       30.04S
GORDONSVILLE*  PTCLDY    33  24  69 CALM      30.05S
ORANGE*        CLOUDY    36  19  51 CALM      30.05S
LOUISA*        CLEAR     33  22  63 S3        30.10S
BUMPASS*       FAIR      32  27  80 SW7       30.07S
FARMVILLE*     CLEAR     33  28  82 S5        30.08S
CREWE*         FAIR      33  27  80 CALM      30.10S
FORT PICKETT*  NOT AVBL
CHASE CITY*    FAIR      32  28  87 CALM      30.11S
CLARKSVILLE*   FAIR      32  28  86 S3        30.12S
SOUTH HILL*    CLEAR     32  28  86 CALM      30.17S
LAWRENCEVILLE* FAIR      32  27  80 CALM      30.12S
EMPORIA*       CLEAR     34  27  75 S3        30.16R
$$

VAZ088>098-110000-
SOUTHEAST VIRGINIA

CITY           SKY/WX    TMP DP  RH WIND       PRES   REMARKS
NORFOLK        CLEAR     39  25  57 W5        30.12R
VIRGINIA BEACH PTCLDY    37  23  56 SW5       30.12R
NORFOLK NAVAL  CLEAR     40  24  53 W10       30.14R
WEST POINT*    CLEAR    N/A N/A N/A SW6       30.13R
SALUDA*        FAIR      32  28  86 CALM      30.11R
NEWPORT NEWS   CLEAR     37  27  67 W9        30.13R
LANGLEY AFB    CLEAR     35  27  73 W7        30.12R
FORT EUSTIS    CLEAR     37  27  67 W5        30.11R
WILLIAMSBURG*  CLEAR     37  28  70 CALM      30.13R
HR EXEC AP*    FAIR      29  26  89 CALM      30.14R
FRANKLIN*      CLEAR     32  26  79 CALM      30.15R
US460-WAKEFLD  CLEAR     33  28  81 SW3       30.13R
$$

VAZ020-022-025-037-045-110000-
WEST CENTRAL AND SOUTHWEST VIRGINIA

CITY           SKY/WX    TMP DP  RH WIND       PRES   REMARKS
STAUNTON*      CLEAR     32  19  58 S9        30.03S
WAYNESBORO*    CLEAR     32  18  55 CALM      30.01S
HOT SPRINGS VA CLEAR     25  12  58 W16       29.91S WCI  12
LYNCHBURG      CLEAR     33  20  58 SW6       30.06S
DANVILLE       CLEAR     32  25  75 SW3       30.12S
SOUTH BOSTON*  FAIR      33  25  71 S3        30.12S
MARTINSVILLE   CLEAR     31  24  76 SW3       30.12S
ROANOKE        PTCLDY    36  19  50 W7        30.07S
BLACKSBURG     PTCLDY    32  20  60 SW5       30.06S
DUBLIN*        CLOUDY    32  21  63 SW15      30.05S WCI  22
MARION*        CLOUDY    31  17  56 W13G20    30.06S WCI  21
HILLSVILLE*    CLOUDY    31  15  52 SW9       30.02R
RICHLANDS*     FAIR      31  16  52 SW7       30.03S
WISE*          PTCLDY    32  18  55 S7        30.03S
ABINGDON*      CLEAR     33  20  59 W6        30.08F
$$

MDZ021>025-VAZ099-100-110000-
SOUTHERN MARYLAND AND THE DELMARVA PENINSULA

CITY           SKY/WX    TMP DP  RH WIND       PRES   REMARKS
PATUXENT RIVER PTCLDY    35  27  72 S7        30.08R
BAY BRIDGE APT CLOUDY    39  25  56 SW6       30.06R
LEONARDTOWN    CLEAR     34  28  80 SW5       30.09R
DOVER          MOCLDY    33  27  77 SW6       30.06R
GEORGETOWN     CLEAR     31  25  78 CALM      30.08R
EASTON         CLEAR     36  25  64 CALM      30.10R
CAMBRIDGE      CLEAR     32  28  86 CALM      30.08R
SALISBURY      CLEAR     31  28  89 SW5       30.08R
OCEAN CITY     CLEAR     32  27  81 SW5       30.09S
WALLOPS ISLAND PTCLDY    34  28  79 W3        30.11R
ACCOMACK*      MOCLDY    35  28  77 CALM      30.11R
$$

NCZ012>017-030>032-110000-
NORTH CENTRAL AND EASTERN NORTH CAROLINA

CITY           SKY/WX    TMP DP  RH WIND       PRES   REMARKS
ROANOKE RAPIDS FAIR      32  30  93 CALM      30.15R
RALEIGH        PTCLDY    36  25  64 CALM      30.14S
ELIZABETH CITY CLEAR     36  29  75 SW5       30.15R
AHOSKIE*       CLEAR     33  29  86 CALM      30.15R
EDENTON*       CLEAR     42  29  60 W5        30.16R
CURRITUCK*     CLEAR     37  28  72 CALM      30.15R
KILL DEVIL HLS CLEAR     38  26  60 CALM      30.13R
MANTEO         CLEAR     40  26  56 NW3       30.16R
CAPE HATTERAS  CLEAR     40  29  64 W7        30.17R
TARBORO*       NOT AVBL
GOLDSBORO      CLEAR     37  28  69 CALM      30.15R
WASHINGTON     CLEAR     37  28  70 CALM      30.17R
GREENVILLE     CLEAR     34  30  86 CALM      30.18R
NEW BERN       CLEAR     34  31  88 S3        30.18R
WILMINGTON     CLEAR     39  30  70 SW3       30.19R
$$

VAZ048-110000-
ELSEWHERE

CITY           SKY/WX    TMP DP  RH WIND       PRES   REMARKS
HARRISBURG PA  CLOUDY    36  21  54 SW5       29.99S
BALTIMORE      CLOUDY    36  23  59 CALM      30.04R
ANNAPOLIS      CLOUDY    38  24  57 CALM      30.06R
ANDREWS AFB    CLOUDY    37  23  56 SW3       30.04R
PHILADELPHIA   PTCLDY    37  21  52 W15       30.04R
HENDERSON NC   CLEAR     30  24  79 CALM      30.12S
GREENSBORO     CLEAR     34  23  64 SW6       30.10F
ROCKY MOUNT    CLEAR     32  29  88 CALM      30.15S
$$

VAZ100-110000-
MARINE

STATION/POSITION TIME  TEMP    WIND        PRES    WAVE   SWELL
                       AIR SEA DIR/SP/G            HT/PER HT/PER
                 (UTC) (F)     (DEG/KT/KT) (MB)    (FT/S) (FT/S)
BRANDYWINE LGT   2248          270/ 16/ 19 1018.1R
CAPE MAY NJ      2248   39 44  280/ 15/ 18 1017.4R
LEWES DE         2248          220/  3/  5 1018.0R
15NM E FENWICK I 2250   40 54  260/ 17/ 21 1018.8R   4/ 9   3/ 9
OCEAN-CITY-INLET 2248          240/  5/  7 1019.2R
WACHAPREAGUE VA  2248   35 44  230/  2/  3 1019.4R
THOMAS POINT MD  2300   40 47  240/  8/  9   N/A
GOOSES REEF MD   2300   40 48  220/ 14/ 16 1018.6    1/ 2
COVE POINT MD    2248   37     220/ 10/ 12 1019.1R
SOLOMONS ISLAND  2248          210/  8/ 10 1018.3R
BISHOPS HEAD MD  2248   40 40  240/ 14/ 18 1019.1R
PINEY POINT MD   2248          240/  5/  8   N/A
POTOMAC MD       2300   39 49  230/ 12/ 16 1018.4    1/ 2
CAMBRIDGE MD     2248                      1018.9R
LEWISETTA VA     2248   37 44  220/  6/  7 1019.1R
RAPPAHANNOCK LGT 2248          240/ 13/ 16 1019.9R
STINGRAY PT      2300   39 49  280/ 10/ 12 1019.8    1/ 2
YORK RVR RNG VA  2248   40     260/ 11/ 14 1020.2R
YORKTOWN VA      2248   38 51  240/  5/  6 1019.6R
JAMESTOWN VA     2300      50  240/  8/ 10   N/A     1
DOMINION TERM VA 2248   40     270/  8/ 11 1020.2R
KIPTOPEKE VA     2248      49  270/ 13/ 18   N/A
CAPE HENRY VA    2248   39     250/  5/  8   N/A
WILLOUBY STN VA  2248          260/ 15/ 16 1019.7R
S CRANEY ISL VA  2248   39     260/  3/  5 1019.9R
CAPE HENRY BUOY  2300      56                N/A     3/ 9   2/11
1ST LANDING BUOY 2300   41 51  260/ 12/ 17 1019.9    2/ 3
CAPE CHARLES BUO 2251      55                N/A     3/ 9   2/11
64NM E OF VA BCH 2250   44 61  260/ 12/ 16 1020.2R   5/ 9   3/ 9
DUCK PIER NC     2248   42 53  270/  7/ 10 1020.3R
44100 DUCK FRF   2245      57                N/A     3/ 8   2/11
44056 DUCK FRF   2300      54                N/A     3/10   2/11
OREGON INLET NC  2248          250/  8/ 11 1020.8R
HATTERAS NC      2248   43 53  270/  9/ 14 1021.1R
DIAMOND SHLS NC  2300   45 68  290/ 10/ 14 1021.7
CAPE LOOKOUT NC  2300          290/  7/  9 1022.1R
$$




USA.gov is the U.S. government's official web portal to all federal, state and local government web resources and services.